{"data":{"norad_id":63549,"epoch":"2026-05-25T03:27:55.945728Z","epoch_age_seconds":52606,"freshness":"FRESH","line1":"1 63549U 25075B   26145.14439752  .00212718  00000+0  16136-2 0  9998","line2":"2 63549  43.0014  52.8980 0002390 269.3383  90.7211 15.70921100 65277","mean_motion":15.709211,"eccentricity":0.000239,"inclination_deg":43.0014,"raan_deg":52.898,"arg_perigee_deg":269.3383,"mean_anomaly_deg":90.7211,"bstar":0.0016136,"rev_number":6527,"period_min":91.665965910064,"perigee_km":354.65375089769,"apogee_km":357.87279422797,"semimajor_km":6734.4002725628,"source":"CELESTRAK","updated_at":"2026-05-25T13:38:20.040078Z"}}